MTN7106 TLPC-TBPB

Flight info

Callsign MTN7106
Flight time 0h 34m
Altitude 13000
Route TEDDY DCT BENUK
Aircraft AT76/M-SDFGIRY/S

Departure

Time 2026-04-25 15:13
Airport George F. L. Charles Airport (TLPC)

Arrival

Time 2026-04-25 15:48
Airport Grantley Adams International Airport (TBPB)
Time Latitude Longitude Altitude Speed Heading
2026-04-25 14:57 14.02002 -60.99630 28 ft 0 kts 145°
2026-04-25 15:09 14.01999 -60.99629 25 ft 2 kts 156°
2026-04-25 15:09 14.01975 -60.99625 25 ft 5 kts 176°
2026-04-25 15:09 14.01900 -60.99690 27 ft 11 kts 254°
2026-04-25 15:10 14.01885 -60.99747 27 ft 14 kts 254°
2026-04-25 15:10 14.01844 -60.99899 28 ft 18 kts 253°
2026-04-25 15:10 14.01797 -61.00090 28 ft 2 kts 163°
2026-04-25 15:11 14.01808 -61.00039 28 ft 2 kts 73°
2026-04-25 15:12 14.01809 -61.00035 28 ft 10 kts 72°
2026-04-25 15:12 14.01824 -60.99981 28 ft 38 kts 76°
2026-04-25 15:13 14.02138 -60.99009 475 ft 96 kts 70°
2026-04-25 15:13 14.02832 -60.97702 1622 ft 111 kts 68°
2026-04-25 15:13 14.03218 -60.96991 2299 ft 114 kts 68°
2026-04-25 15:14 14.03608 -60.96288 2979 ft 113 kts 69°
2026-04-25 15:14 14.04016 -60.95474 3160 ft 144 kts 69°
2026-04-25 15:14 14.04376 -60.94458 3351 ft 160 kts 91°
2026-04-25 15:14 14.03954 -60.93403 3659 ft 164 kts 126°
2026-04-25 15:15 14.03264 -60.92447 4045 ft 169 kts 126°
2026-04-25 15:15 14.02541 -60.91481 4518 ft 170 kts 128°
2026-04-25 15:15 14.01790 -60.90536 4964 ft 171 kts 129°
2026-04-25 15:15 14.01062 -60.89639 5308 ft 176 kts 130°
2026-04-25 15:16 14.00369 -60.88795 5691 ft 177 kts 130°
2026-04-25 15:17 13.98784 -60.86860 6573 ft 177 kts 131°
2026-04-25 15:17 13.97991 -60.85874 6997 ft 178 kts 131°
2026-04-25 15:17 13.97201 -60.84872 7365 ft 183 kts 130°
2026-04-25 15:18 13.96399 -60.83853 7801 ft 182 kts 131°
2026-04-25 15:18 13.94810 -60.81801 8566 ft 186 kts 131°
2026-04-25 15:18 13.93989 -60.80757 8959 ft 187 kts 132°
2026-04-25 15:19 13.93150 -60.79707 9279 ft 191 kts 131°
2026-04-25 15:19 13.92874 -60.79363 9388 ft 193 kts 131°
2026-04-25 15:19 13.91463 -60.77595 9980 ft 194 kts 132°
2026-04-25 15:19 13.90602 -60.76520 10305 ft 196 kts 132°
2026-04-25 15:20 13.89728 -60.75434 10623 ft 197 kts 131°
2026-04-25 15:20 13.88847 -60.74335 10933 ft 199 kts 131°
2026-04-25 15:20 13.87976 -60.73230 11265 ft 199 kts 132°
2026-04-25 15:20 13.87105 -60.72122 11578 ft 200 kts 132°
2026-04-25 15:21 13.86522 -60.71382 11760 ft 202 kts 132°
2026-04-25 15:21 13.85353 -60.69887 12192 ft 202 kts 132°
2026-04-25 15:21 13.84461 -60.68758 12508 ft 203 kts 133°
2026-04-25 15:21 13.83867 -60.68011 12705 ft 204 kts 133°
2026-04-25 15:22 13.82944 -60.66874 12881 ft 211 kts 133°
2026-04-25 15:22 13.81647 -60.65296 12957 ft 224 kts 133°
2026-04-25 15:22 13.80962 -60.64447 12974 ft 230 kts 132°
2026-04-25 15:22 13.79945 -60.63174 12984 ft 236 kts 132°
2026-04-25 15:23 13.78892 -60.61853 12983 ft 241 kts 131°
2026-04-25 15:23 13.77823 -60.60508 12984 ft 244 kts 132°
2026-04-25 15:23 13.76744 -60.59154 12989 ft 246 kts 131°
2026-04-25 15:23 13.75657 -60.57781 12986 ft 248 kts 132°
2026-04-25 15:24 13.74566 -60.56409 12984 ft 249 kts 132°
2026-04-25 15:24 13.73462 -60.55023 12992 ft 250 kts 131°
2026-04-25 15:24 13.72414 -60.53620 12986 ft 251 kts 129°
2026-04-25 15:24 13.71712 -60.52642 12986 ft 251 kts 129°
2026-04-25 15:25 13.70333 -60.50736 12989 ft 251 kts 129°
2026-04-25 15:25 13.69284 -60.49297 12988 ft 251 kts 129°
2026-04-25 15:25 13.68236 -60.47852 12986 ft 251 kts 129°
2026-04-25 15:25 13.67186 -60.46407 12992 ft 252 kts 129°
2026-04-25 15:26 13.66134 -60.44965 12995 ft 252 kts 129°
2026-04-25 15:26 13.65080 -60.43518 12989 ft 253 kts 129°
2026-04-25 15:26 13.64037 -60.42086 12994 ft 253 kts 129°
2026-04-25 15:26 13.62988 -60.40640 12986 ft 252 kts 129°
2026-04-25 15:27 13.61929 -60.39193 12991 ft 253 kts 129°
2026-04-25 15:27 13.60879 -60.37746 12985 ft 253 kts 129°
2026-04-25 15:27 13.58771 -60.34855 12987 ft 252 kts 129°
2026-04-25 15:28 13.57726 -60.33425 12997 ft 253 kts 129°
2026-04-25 15:28 13.56674 -60.31973 12989 ft 253 kts 129°
2026-04-25 15:28 13.55618 -60.30524 12992 ft 253 kts 129°
2026-04-25 15:28 13.54556 -60.29075 12995 ft 253 kts 129°
2026-04-25 15:29 13.53497 -60.27624 12990 ft 253 kts 129°
2026-04-25 15:29 13.52455 -60.26191 12993 ft 253 kts 129°
2026-04-25 15:29 13.51393 -60.24738 12987 ft 253 kts 129°
2026-04-25 15:29 13.50331 -60.23286 12990 ft 253 kts 129°
2026-04-25 15:30 13.49276 -60.21836 12991 ft 253 kts 129°
2026-04-25 15:30 13.48219 -60.20391 12996 ft 253 kts 129°
2026-04-25 15:30 13.47177 -60.18963 12996 ft 253 kts 129°
2026-04-25 15:30 13.46118 -60.17516 12989 ft 253 kts 129°
2026-04-25 15:31 13.45066 -60.16064 12999 ft 253 kts 129°
2026-04-25 15:31 13.44007 -60.14618 12992 ft 253 kts 129°
2026-04-25 15:31 13.42947 -60.13170 12993 ft 253 kts 129°
2026-04-25 15:31 13.41887 -60.11722 12996 ft 254 kts 129°
2026-04-25 15:32 13.40834 -60.10271 12988 ft 253 kts 129°
2026-04-25 15:32 13.39788 -60.08843 12990 ft 253 kts 130°
2026-04-25 15:32 13.38726 -60.07392 12993 ft 253 kts 129°
2026-04-25 15:33 13.36609 -60.04503 12996 ft 253 kts 129°
2026-04-25 15:33 13.35548 -60.03057 12988 ft 253 kts 128°
2026-04-25 15:33 13.34509 -60.01630 12994 ft 253 kts 129°
2026-04-25 15:33 13.33455 -60.00181 12988 ft 253 kts 129°
2026-04-25 15:34 13.32395 -59.98739 12987 ft 253 kts 129°
2026-04-25 15:34 13.31336 -59.97296 12993 ft 253 kts 129°
2026-04-25 15:34 13.30278 -59.95850 12994 ft 253 kts 130°
2026-04-25 15:34 13.29582 -59.94891 12994 ft 252 kts 129°
2026-04-25 15:35 13.27149 -59.91524 12985 ft 252 kts 128°
2026-04-25 15:35 13.26108 -59.90075 12990 ft 252 kts 129°
2026-04-25 15:35 13.25063 -59.88636 12991 ft 252 kts 129°
2026-04-25 15:36 13.22956 -59.85760 12991 ft 251 kts 129°
2026-04-25 15:36 13.21907 -59.84339 12990 ft 252 kts 129°
2026-04-25 15:36 13.20835 -59.82905 12990 ft 252 kts 129°
2026-04-25 15:37 13.19770 -59.81471 12984 ft 252 kts 129°
2026-04-25 15:37 13.18710 -59.80037 12990 ft 252 kts 131°
2026-04-25 15:37 13.17653 -59.78635 12980 ft 239 kts 129°
2026-04-25 15:37 13.16664 -59.77294 12476 ft 239 kts 130°
2026-04-25 15:38 13.15665 -59.75902 11790 ft 245 kts 129°
2026-04-25 15:38 13.14655 -59.74497 11138 ft 250 kts 129°
2026-04-25 15:38 13.13610 -59.73060 10457 ft 252 kts 128°
2026-04-25 15:38 13.12499 -59.71672 9758 ft 250 kts 141°
2026-04-25 15:39 13.10955 -59.70887 9002 ft 249 kts 162°
2026-04-25 15:39 13.09269 -59.70445 8258 ft 250 kts 167°
2026-04-25 15:39 13.07570 -59.70075 7541 ft 249 kts 167°
2026-04-25 15:39 13.05879 -59.69718 6833 ft 247 kts 167°
2026-04-25 15:40 13.04194 -59.69416 6124 ft 243 kts 174°
2026-04-25 15:40 13.03080 -59.69533 5639 ft 243 kts 189°
2026-04-25 15:40 13.00907 -59.69676 4683 ft 233 kts 164°
2026-04-25 15:40 12.99347 -59.69531 4317 ft 223 kts 188°
2026-04-25 15:41 12.98026 -59.70354 4075 ft 229 kts 226°
2026-04-25 15:41 12.97855 -59.71855 3861 ft 227 kts 309°
2026-04-25 15:41 12.98952 -59.72923 3677 ft 218 kts 308°
2026-04-25 15:41 12.99629 -59.74317 3439 ft 218 kts 295°
2026-04-25 15:42 13.00587 -59.75476 3207 ft 219 kts 331°
2026-04-25 15:42 13.02029 -59.75819 2957 ft 213 kts 10°
2026-04-25 15:42 13.03311 -59.75175 2735 ft 206 kts 50°
2026-04-25 15:42 13.03859 -59.73884 2545 ft 196 kts 87°
2026-04-25 15:43 13.03902 -59.72495 2348 ft 195 kts 91°
2026-04-25 15:43 13.03883 -59.71101 2163 ft 195 kts 94°
2026-04-25 15:43 13.03875 -59.69730 2076 ft 191 kts 87°
2026-04-25 15:43 13.04022 -59.68384 2033 ft 190 kts 84°
2026-04-25 15:44 13.04194 -59.67045 2010 ft 189 kts 84°
2026-04-25 15:44 13.04360 -59.65715 2000 ft 186 kts 85°
2026-04-25 15:44 13.04504 -59.64402 1992 ft 185 kts 87°
2026-04-25 15:44 13.04604 -59.63104 1999 ft 184 kts 88°
2026-04-25 15:45 13.04698 -59.61796 1989 ft 183 kts 88°
2026-04-25 15:45 13.04792 -59.60493 1988 ft 181 kts 88°
2026-04-25 15:45 13.04924 -59.59176 1798 ft 191 kts 82°
2026-04-25 15:45 13.05125 -59.58285 1637 ft 195 kts 79°
2026-04-25 15:46 13.05590 -59.56518 1303 ft 190 kts 77°
2026-04-25 15:46 13.05933 -59.55297 1110 ft 164 kts 77°
2026-04-25 15:46 13.06231 -59.54241 905 ft 145 kts 76°
2026-04-25 15:46 13.06501 -59.53276 710 ft 136 kts 77°
2026-04-25 15:47 13.06742 -59.52369 539 ft 129 kts 78°
2026-04-25 15:47 13.06953 -59.51508 355 ft 121 kts 78°
2026-04-25 15:47 13.07102 -59.50730 255 ft 102 kts 78°
2026-04-25 15:47 13.07259 -59.50076 175 ft 84 kts 78°
2026-04-25 15:48 13.07371 -59.49653 172 ft 42 kts 72°
2026-04-25 15:48 13.07439 -59.49378 172 ft 36 kts 78°
2026-04-25 15:48 13.07487 -59.49182 172 ft 17 kts 76°
2026-04-25 15:48 13.07516 -59.49079 172 ft 13 kts 76°
2026-04-25 15:49 13.07540 -59.48999 172 ft 10 kts 59°
2026-04-25 15:49 13.07606 -59.48989 172 ft 13 kts 342°
2026-04-25 15:49 13.07678 -59.49032 172 ft 11 kts 276°
2026-04-25 15:49 13.07657 -59.49113 172 ft 9 kts 256°
2026-04-25 15:50 13.07694 -59.49162 172 ft 4 kts 345°
2026-04-25 15:50 13.07708 -59.49166 172 ft 0 kts 345°